Weather in Bolshoy Zhuzhges

Russia / Udmurt Republic     56°43′00″N   52°16′16″E
temp.,
°C
wind,
m/s
gust,
m/s
humid.,
%
clouds,
%
prec.,
mm/h
press.,
hPa
HPBL,
m
24 may, tue
tue2401:00+1ssw239276 0.0 100239
04:00+1s3797100 0.0 1002275
07:00+3ssw5880100 0.0 1003668
10:00+6sw576671 0.1 10041266
13:00+8ssw686890 0.1 10061151
16:00+10ssw61068100 0.8 10061366
19:00+8wsw268124 0.6 1007595
22:00+6s228695 0.6 100826
25 may, wed
wed2501:00+4e2290100 0.0 100814
04:00+5w1196100 2.4 100824
07:00+7ne229042 1.0 1007270
10:00+8nw3284100 1.1 1007589
13:00+11nw3271100 0.1 10071032
16:00+11nw4366100 0.4 10061000
19:00+7wnw4789100 1.3 1007410
22:00+5nw4893100 4.6 1008711
26 may, thu
thu2601:00+4sw2392100 0.5 100866
04:00+2wsw379596 0.5 1009153
07:00+4wsw589276 0.0 1010465
10:00+6sw6984100 0.1 10111035
13:00+9w6107098 0.4 10111487
16:00+10sw6871100 1.1 10121353
19:00+9ssw5976100 0.7 1011573
22:00+5sse311886 0.7 1011214
27 may, fri
fri2701:00+6s51287100 0.1 1010420
04:00+6s41092100 0.6 1009328
07:00+6s51296100 4.3 1007506
10:00+8s51390100 6.3 1007530
13:00+10sse61390100 1.0 1005939
16:00+10s81493100 2.3 10041011
19:00+11s7139391 0.9 1003771
22:00+10ssw61492100 1.9 1004610
28 may, sat
sat2801:00+9sse4999100 2.4 1003275
04:00+10ssw489899 3.1 1005412
07:00+10ssw3595100 0.0 1006325
10:00+11ssw5793100 0.1 1007573
13:00+12ssw5986100 0.1 10081010
16:00+14s61179100 0.1 1008893
19:00+13sse61482100 0.5 1007553
22:00+13s91785100 1.5 1005990